This demonstration page uses our WeatherBlox Daily Observations layout. Learn more.

Left ArrowRight Arrow

40.92945, -100.16068

Hourly Observations for February 2, 2021

Temp ( °F °C ) Dew Point ( °F °C ) Humidity (%) Winds ( mph kmh ) Pressure ( in mb ) Visibility ( mi km ) Precip ( " mm )
12:15 am 00:15 Mostly Cloudy with Mist and Fog 22 -5.4 21 -6 96 96 SE 8 13 30.29 1026 1.5 2.41401 N/A
12:35 am 00:35 Cloudy with Freezing Fog 24 -4.6 22 -5.3 95 95 SE 8 13 30.28 1026 0.25 0.402335 N/A
12:55 am 00:55 Cloudy with Freezing Fog 25 -4.1 23 -4.9 94 94 ESE 6 9 30.27 1025 0.25 0.402335 N/A
1:15 am 01:15 Cloudy with Freezing Fog 26 -3.6 24 -4.2 96 96 ESE 5 7 30.26 1025 0.25 0.402335 N/A
1:35 am 01:35 Cloudy with Freezing Fog 26 -3.2 25 -3.8 96 96 E 5 7 30.26 1025 0.25 0.402335 N/A
1:55 am 01:55 Cloudy with Freezing Fog 26 -3.1 25 -3.7 96 96 E 3 6 30.26 1025 0.25 0.402335 N/A
2:15 am 02:15 Cloudy with Freezing Fog 27 -2.7 26 -3.3 96 96 E 3 6 30.25 1025 0.25 0.402335 N/A
2:35 am 02:35 Cloudy with Freezing Fog 27 -2.6 26 -3.1 96 96 SE 7 11 30.23 1024 0.5 0.80467 N/A
2:55 am 02:55 Cloudy with Freezing Fog 28 -2.4 27 -2.9 96 96 SE 6 9 30.23 1024 0.5 0.80467 N/A
3:15 am 03:15 Cloudy with Freezing Fog 28 -2.2 27 -2.7 96 96 SE 6 9 30.23 1024 0.5 0.80467 N/A
3:35 am 03:35 Cloudy with Freezing Fog 28 -2 28 -2.5 96 96 SSE 7 11 30.23 1024 0.5 0.80467 N/A
3:55 am 03:55 Cloudy with Freezing Fog 29 -1.9 28 -2.4 96 96 SSE 5 7 30.23 1024 0.5 0.80467 N/A
4:15 am 04:15 Cloudy with Freezing Fog 29 -1.9 28 -2.4 96 96 SE 5 7 30.22 1023 0.25 0.402335 N/A
4:35 am 04:35 Cloudy with Freezing Fog 28 -2.2 27 -2.7 96 96 ESE 5 7 30.22 1023 0.25 0.402335 N/A
4:55 am 04:55 Cloudy with Freezing Fog 28 -2.1 27 -2.6 96 96 ESE 3 6 30.22 1023 0.25 0.402335 N/A
5:15 am 05:15 Cloudy with Freezing Fog 28 -2.5 27 -3 96 96 SE 3 6 30.22 1023 0.25 0.402335 N/A
5:35 am 05:35 Cloudy with Freezing Fog 27 -2.6 26 -3.1 96 96 SE 6 9 30.22 1023 0.25 0.402335 N/A
5:55 am 05:55 Cloudy with Freezing Fog 27 -2.8 26 -3.3 96 96 SE 5 7 30.23 1024 0.25 0.402335 N/A
6:15 am 06:15 Cloudy with Freezing Fog 27 -2.9 26 -3.5 96 96 ESE 3 6 30.22 1023 0.25 0.402335 N/A
6:35 am 06:35 Cloudy with Freezing Fog 27 -3 26 -3.5 96 96 SE 3 6 30.22 1023 0.25 0.402335 N/A
6:55 am 06:55 Cloudy with Freezing Fog 27 -3 26 -3.6 96 96 N N/A 30.23 1024 0.25 0.402335 N/A
7:15 am 07:15 Cloudy with Freezing Fog 27 -3 26 -3.6 96 96 N N/A 30.24 1024 0.25 0.402335 N/A
7:35 am 07:35 Cloudy with Freezing Fog 26 -3.2 25 -3.8 96 96 SE 3 6 30.24 1024 0.25 0.402335 N/A
7:55 am 07:55 Cloudy with Freezing Fog 26 -3.1 25 -3.7 96 96 SSE 3 6 30.24 1024 N/A N/A
8:15 am 08:15 Cloudy with Freezing Fog 27 -3 26 -3.6 96 96 SE 5 7 30.23 1024 N/A N/A
8:35 am 08:35 Cloudy with Freezing Fog 27 -3 26 -3.5 96 96 SSE 5 7 30.23 1024 N/A N/A
8:55 am 08:55 Cloudy with Freezing Fog 27 -2.8 26 -3.5 95 95 N N/A 30.23 1024 0.25 0.402335 N/A
9:15 am 09:15 Cloudy with Freezing Fog 27 -2.9 26 -3.5 96 96 N N/A 30.24 1024 0.25 0.402335 N/A
9:35 am 09:35 Cloudy with Freezing Fog 27 -2.8 26 -3.5 95 95 N N/A 30.23 1024 0.25 0.402335 N/A
9:55 am 09:55 Cloudy with Freezing Fog 27 -2.6 26 -3.2 96 96 N N/A 30.22 1023 0.25 0.402335 N/A
10:15 am 10:15 Cloudy with Freezing Fog 28 -2.3 27 -2.8 96 96 N N/A 30.21 1023 0.25 0.402335 N/A
10:35 am 10:35 Cloudy with Freezing Fog 28 -2.1 27 -2.6 96 96 N N/A 30.21 1023 0.25 0.402335 N/A
10:55 am 10:55 Cloudy with Freezing Fog 28 -2.2 27 -2.7 96 96 N N/A 30.21 1023 0.25 0.402335 N/A
11:15 am 11:15 Cloudy with Freezing Fog 29 -1.8 28 -2.3 96 96 N N/A 30.21 1023 0.25 0.402335 N/A
11:35 am 11:35 Cloudy with Freezing Fog 29 -1.7 28 -2.1 97 97 N N/A 30.2 1023 0.25 0.402335 N/A
11:55 am 11:55 Cloudy with Freezing Fog 29 -1.4 29 -1.9 96 96 N N/A 30.19 1022 0.25 0.402335 N/A
12:15 pm 12:15 Cloudy with Freezing Fog 29 -1.4 29 -1.7 98 98 N N/A 30.18 1022 0.5 0.80467 N/A
12:35 pm 12:35 Cloudy with Freezing Fog 30 -1 29 -1.5 96 96 N N/A 30.17 1022 0.5 0.80467 N/A
12:55 pm 12:55 Cloudy with Mist and Fog 31 -0.8 30 -1.2 97 97 N N/A 30.16 1021 0.75 1.207005 N/A
1:15 pm 13:15 Cloudy with Mist and Fog 31 -0.5 31 -0.7 99 99 S 3 6 30.14 1021 1.75 2.816345 N/A
1:35 pm 13:35 Cloudy with Mist and Fog 31 -0.4 31 -0.6 99 99 SW 3 6 30.12 1020 3 4.82802 N/A
1:55 pm 13:55 Cloudy with Mist and Fog 32 -0.1 31 -0.5 97 97 S 6 9 30.12 1020 2.5 4.02335 N/A
2:15 pm 14:15 Cloudy with Mist and Fog 32 undefined 32 -0.1 99 99 S 5 7 30.11 1020 3 4.82802 N/A
2:35 pm 14:35 Cloudy with Mist and Fog 32 undefined 32 -0.2 99 99 SSE 6 9 30.1 1019 3 4.82802 N/A
2:55 pm 14:55 Cloudy with Mist and Fog 32 0.1 32 undefined 99 99 S 7 11 30.1 1019 5 8.0467 N/A
3:15 pm 15:15 Cloudy with Mist and Fog 32 0.1 32 undefined 99 99 SSW 8 13 30.1 1019 5 8.0467 N/A
3:35 pm 15:35 Cloudy with Mist and Fog 32 0.2 32 undefined 99 99 S 7 11 30.08 1019 5 8.0467 N/A
3:55 pm 15:55 Cloudy with Mist and Fog 32 0.1 32 undefined 99 99 S 8 13 30.1 1019 4 6.43736 N/A
4:15 pm 16:15 Cloudy with Mist and Fog 32 0.1 32 undefined 99 99 S 8 13 30.1 1019 2.5 4.02335 N/A
4:35 pm 16:35 Cloudy with Mist and Fog 32 undefined 32 undefined 100 100 S 7 11 30.1 1019 2 3.21868 N/A
4:55 pm 16:55 Cloudy with Mist and Fog 32 undefined 32 -0.1 99 99 S 8 13 30.1 1019 0.75 1.207005 N/A
5:15 pm 17:15 Cloudy with Fog 32 undefined 32 -0.2 99 99 SE 8 13 30.1 1019 0.5 0.80467 N/A
5:35 pm 17:35 Cloudy with Freezing Fog 31 -0.3 31 -0.5 99 99 SSE 10 17 30.08 1019 0.25 0.402335 N/A
5:55 pm 17:55 Cloudy with Freezing Fog 31 -0.5 31 -0.6 99 99 S 12 19 30.09 1019 0.25 0.402335 N/A
6:15 pm 18:15 Cloudy with Freezing Fog 31 -0.6 31 -0.8 99 99 S 9 15 30.11 1020 0.25 0.402335 N/A
6:35 pm 18:35 Cloudy with Freezing Fog 31 -0.6 30 -0.9 98 98 S 8 13 30.09 1019 0.5 0.80467 N/A
6:55 pm 18:55 Cloudy with Freezing Fog 31 -0.7 30 -1 98 98 S 6 9 30.09 1019 0.5 0.80467 N/A
7:15 pm 19:15 Cloudy with Freezing Fog 31 -0.6 30 -1 97 97 S 7 11 30.09 1019 0.5 0.80467 N/A
7:35 pm 19:35 Cloudy with Freezing Fog 30 -1 30 -1.2 99 99 S 6 9 30.1 1019 0.5 0.80467 N/A
7:55 pm 19:55 Cloudy with Mist and Fog 30 -1.2 29 -1.5 98 98 S 7 11 30.1 1019 0.75 1.207005 N/A
8:15 pm 20:15 Cloudy with Freezing Fog 30 -1.2 29 -1.5 98 98 S 6 9 30.1 1019 0.5 0.80467 N/A
8:35 pm 20:35 Cloudy with Mist and Fog 29 -1.4 29 -1.6 99 99 S 5 7 30.1 1019 0.75 1.207005 N/A
8:55 pm 20:55 Cloudy with Mist and Fog 29 -1.7 28 -2.1 97 97 SSW 5 7 30.09 1019 0.75 1.207005 N/A
9:15 pm 21:15 Cloudy with Freezing Fog 29 -1.7 28 -2.1 97 97 N N/A 30.09 1019 0.5 0.80467 N/A
9:35 pm 21:35 Cloudy with Freezing Fog 29 -1.8 28 -2.2 97 97 S 3 6 30.08 1019 0.25 0.402335 N/A
9:55 pm 21:55 Cloudy with Freezing Fog 28 -2.1 28 -2.5 97 97 SE 3 6 30.1 1019 0.25 0.402335 N/A
10:15 pm 22:15 Cloudy with Freezing Fog 28 -2.2 27 -2.6 97 97 SE 3 6 30.09 1019 0.25 0.402335 N/A
10:35 pm 22:35 Cloudy with Mist and Fog 27 -2.6 26 -3.2 96 96 ESE 3 6 30.09 1019 1.25 2.011675 N/A
10:55 pm 22:55 Cloudy with Freezing Fog 27 -2.8 26 -3.3 96 96 N N/A 30.09 1019 0.25 0.402335 N/A
11:15 pm 23:15 Cloudy with Freezing Fog 27 -3 26 -3.6 96 96 SE 3 6 30.1 1019 0.5 0.80467 N/A
11:35 pm 23:35 Cloudy with Freezing Fog 26 -3.2 25 -3.9 95 95 N N/A 30.1 1019 0.25 0.402335 N/A
11:55 pm 23:55 Cloudy with Freezing Fog 26 -3.6 24 -4.3 95 95 N N/A 30.1 1019 0.25 0.402335 N/A

Powered by AerisWeather